Weather History for Anchorage, AK

Change the Weather History Date:

Monday, August 5, 2013

  Actual Average Record
Temperature  
Mean Temperature 60 °F 59 °F  
Max Temperature 65 °F 65 °F 77 °F (2004)
Min Temperature 55 °F 52 °F 40 °F (1935)
Degree Days  
Heating Degree Days 5    
Month to date heating degree days 18  
Since 1 June heating degree days 313  
Since 1 July heating degree days 129  
Cooling Degree Days 0    
Month to date cooling degree days 0  
Year to date cooling degree days 21  
Since 1 June cooling degree days 21  
Growing Degree Days 10 (Base 50)    
Moisture  
Dew Point 51 °F    
Average Humidity 75    
Maximum Humidity 86    
Minimum Humidity 63    
Precipitation  
Precipitation T in 0.09 in 0.85 in (1973)
Month to date precipitation T 0.43  
Year to date precipitation 7.94 6.47  
Snow  
Snow 0.00 in 0.00 in 0.00 in ()
Month to date snowfall 0.0 0.0  
Since 1 June snowfall 0.0 0.0  
Since 1 July snowfall 0.0 0.0  
Snow Depth 0.00 in    
Sea Level Pressure  
Sea Level Pressure 29.97 in    
Wind  
Wind Speed 5 mph (ESE)    
Max Wind Speed 12 mph    
Max Gust Speed 25 mph    
Visibility 10 miles    
Events Rain    
T = Trace of Precipitation, MM = Missing Value Source: NWS Daily Summary

Daily Weather History Graph

Daily Weather History Graph

Search for Another Location

Airport:

Trip Planner

Search our weather history database for the weather conditions in past years. The results will help you decide how hot, cold, wet, or windy it might be!

Date:

Astronomy

Aug. 05, 2013 Rise Set
Actual Time 5:44 AM AKDT 10:26 PM AKDT
Civil Twilight 4:42 AM AKDT 11:26 PM AKDT
Nautical Twilight 2:38 AM AKDT 1:35 AM AKDT
Astronomical Twilight Sun does not rise Sun does not rise
Moon 4:55 AM AKDT (8/5) 9:15 PM AKDT (8/5)
Length of Visible Light 18h 44m
Length of Day
16h 42m
Waning Crescent, 1% of the Moon is Illuminated
Aug 5
Waning Crescent
Aug 6
New
Aug 14
First Quarter
Aug 20
Full
Aug 28
Last Quarter

Hourly Weather History & Observations

Time (AKDT) Temp. Dew Point Humidity Pressure Visibility Wind Dir Wind Speed Gust Speed Precip Events Conditions
12:53 AM 59.0 °F 51.1 °F 75% 29.97 in 10.0 mi SSE 11.5 mph 23.0 mph 0.00 in Rain Light Rain
1:53 AM 57.9 °F 51.1 °F 78% 29.97 in 10.0 mi South 10.4 mph - 0.00 in   Overcast
2:53 AM 59.0 °F 48.9 °F 69% 29.98 in 10.0 mi SE 11.5 mph 25.3 mph N/A   Overcast
3:53 AM 57.9 °F 54.0 °F 87% 29.98 in 10.0 mi WSW 5.8 mph - 0.00 in Rain Light Rain
4:12 AM 57.2 °F 53.6 °F 88% 29.98 in 10.0 mi Variable 6.9 mph - 0.00 in   Overcast
4:53 AM 57.9 °F 52.0 °F 81% 29.97 in 10.0 mi SSE 8.1 mph - 0.00 in   Overcast
5:53 AM 57.0 °F 52.0 °F 83% 29.97 in 10.0 mi Calm Calm - N/A   Overcast
6:53 AM 57.0 °F 53.1 °F 87% 29.97 in 10.0 mi NE 4.6 mph - N/A   Overcast
7:53 AM 57.0 °F 53.1 °F 87% 29.97 in 10.0 mi NE 5.8 mph - N/A   Overcast
8:53 AM 59.0 °F 53.1 °F 81% 29.97 in 10.0 mi ENE 5.8 mph - N/A   Mostly Cloudy
9:53 AM 59.0 °F 52.0 °F 78% 29.97 in 10.0 mi NE 5.8 mph - N/A   Mostly Cloudy
10:53 AM 62.1 °F 53.1 °F 72% 29.96 in 10.0 mi NNE 4.6 mph - N/A   Mostly Cloudy
11:53 AM 63.0 °F 51.1 °F 65% 29.97 in 10.0 mi NE 6.9 mph - N/A   Mostly Cloudy
12:53 PM 64.0 °F 52.0 °F 65% 29.97 in 10.0 mi NNE 4.6 mph - N/A   Overcast
1:53 PM 64.0 °F 51.1 °F 63% 29.97 in 10.0 mi NNE 4.6 mph - N/A   Overcast
2:53 PM 66.0 °F 50.0 °F 56% 29.96 in 10.0 mi ESE 10.4 mph - N/A   Overcast
3:53 PM 64.0 °F 50.0 °F 60% 29.96 in 10.0 mi SE 15.0 mph 21.9 mph 0.00 in Rain Light Rain
4:53 PM 64.0 °F 51.1 °F 63% 29.96 in 10.0 mi SE 12.7 mph - 0.01 in   Overcast
5:53 PM 64.9 °F 48.9 °F 56% 29.96 in 10.0 mi SSE 15.0 mph 23.0 mph N/A   Overcast
6:53 PM 64.0 °F 48.9 °F 58% 29.95 in 10.0 mi SSE 17.3 mph 25.3 mph N/A   Overcast
7:53 PM 64.0 °F 46.9 °F 54% 29.95 in 10.0 mi SSE 15.0 mph 20.7 mph N/A   Overcast
8:53 PM 63.0 °F 46.9 °F 56% 29.96 in 10.0 mi SE 15.0 mph 23.0 mph N/A   Overcast
9:53 PM 62.1 °F 48.0 °F 60% 29.96 in 10.0 mi SSE 13.8 mph 20.7 mph N/A   Overcast
10:53 PM 62.1 °F 48.9 °F 62% 29.96 in 10.0 mi SSE 13.8 mph 24.2 mph 0.00 in Rain Light Rain
11:53 PM 62.1 °F 48.0 °F 60% 29.96 in 10.0 mi SSE 12.7 mph - 0.00 in   Overcast